Weather in Mata De Sao Joao

Brazil     12°31′39″S   38°18′19″W
temp.,
°C
wind,
m/s
gust,
m/s
humid.,
%
clouds,
%
prec.,
mm/h
press.,
hPa
HPBL,
m
18 may, tue
tue1800:00+20sw119663 0.0 101612
03:00+22sw118788 0.0 101544
06:00+21sw129066 0.0 101663
09:00+26s2364100 0.0 10171170
12:00+29sse3348100 0.0 10151630
15:00+27se3256100 0.0 10131016
18:00+21sse2386100 0.0 101567
21:00+20ese1190100 0.0 101611
19 may, wed
wed1900:00+20ne1192100 0.0 101511
03:00+19n009673 0.0 101411
06:00+19wsw1197100 0.0 101612
09:00+27sse236754 0.0 1017855
12:00+30se334882 0.0 10151605
15:00+28se3358100 0.0 10131161
18:00+22se248998 0.0 101493
21:00+21sse1194100 0.0 101613
20 may, thu
thu2000:00+21se119665 0.0 101611
03:00+20ese00975 0.0 101411
06:00+20sw019844 0.0 101612
09:00+28se236412 0.1 10171256
12:00+30se33495 0.0 10151638
15:00+28se33585 0.0 10131273
18:00+22se23910 0.0 101573
21:00+21sse11950 0.0 101616
21 may, fri
fri2100:00+21se119724 0.0 101512
03:00+21sse019846 0.0 101412
06:00+21ssw119875 0.0 101522
09:00+28se236735 0.1 10171183
12:00+31se3348100 0.1 10141762
15:00+29ese33546 0.1 10121283
18:00+22ese24942 0.0 101482
21:00+21e11985 0.0 101615
22 may, sat
sat2200:00+21s0098100 0.0 101512
03:00+21w119977 0.0 101412
06:00+21w119975 0.0 101513
09:00+27ese237193 0.1 1016938
12:00+28ese347192 1.0 10141010
15:00+28ese346714 2.2 1013997
18:00+23e24925 0.1 101486
21:00+22ene11986 0.1 101616